Alamosa, CO

12:58 PM MDT on September 15, 2019 (GMT -0600)
San Luis Valley Regional / Bergman Field

Weather History for KALS - August, 2019

Change the Weather History Date:

Friday, August 23, 2019

  Actual Average Record
Temperature  
Mean Temperature 61 °F 62 °F  
Max Temperature 79 °F 79 °F 89 °F (1938)
Min Temperature 42 °F 45 °F 35 °F (1941)
Degree Days  
Heating Degree Days 4 3  
Month to date heating degree days 23 50  
Since 1 June heating degree days 223 263  
Since 1 July heating degree days 50 95  
Cooling Degree Days 0 0  
Month to date cooling degree days 14 12  
Year to date cooling degree days 64 50  
Since 1 June cooling degree days 64 50  
Growing Degree Days 10 (Base 50)    
Moisture  
Dew Point 39 °F    
Average Humidity 53    
Maximum Humidity 89    
Minimum Humidity 16    
Precipitation  
Precipitation 0.03 in 0.04 in 0.33 in (1906)
Month to date precipitation 0.85 0.94  
Year to date precipitation 6.05 4.62  
Snow  
Snow 0.00 in 0.00 in 0.00 in (2002)
Month to date snowfall 0.0 0.0  
Since 1 June snowfall 0.0 0.0  
Since 1 July snowfall 0.0 0.0  
Snow Depth 0.00 in    
Sea Level Pressure  
Sea Level Pressure 30.05 in    
Wind  
Wind Speed 6 mph (NNW)    
Max Wind Speed 26 mph    
Max Gust Speed 37 mph    
Visibility 10 miles    
Events Rain , Thunderstorm    
T = Trace of Precipitation, MM = Missing Value Source: NWS Daily Summary

Daily Weather History Graph

Daily Weather History Graph

Search for Another Location

Airport or City:

Astronomy

Aug. 23, 2019 Rise Set
Actual Time 6:26 AM MDT 7:45 PM MDT
Civil Twilight 5:58 AM MDT 8:12 PM MDT
Nautical Twilight 5:26 AM MDT 8:45 PM MDT
Astronomical Twilight 4:52 AM MDT 9:19 PM MDT
Moon No Moon Rise 1:56 PM MDT (8/23)
Length of Visible Light 14h 13m
Length of Day
13h 19m
Waning Gibbous, 49% of the Moon is Illuminated
Aug 23
Waning Gibbous
Aug 30
New
Sep 5
First Quarter
Sep 13
Full
Sep 21
Last Quarter

Hourly Weather History & Observations

Time (MDT) Temp. Windchill Dew Point Humidity Pressure Visibility Wind Dir Wind Speed Gust Speed Precip Events Conditions
12:52 AM 50.0 °F - 39.9 °F 68% 29.96 in 10.0 mi SW 3.5 mph - N/A   Clear
1:52 AM 45.0 °F 43.5 °F 41.0 °F 86% 29.97 in 10.0 mi Variable 3.5 mph - N/A   Clear
2:52 AM 46.9 °F - 41.0 °F 80% 29.96 in 10.0 mi South 4.6 mph - N/A   Clear
3:52 AM 46.0 °F 43.1 °F 39.9 °F 79% 29.98 in 10.0 mi NW 5.8 mph - N/A   Clear
4:52 AM 45.0 °F - 41.0 °F 86% 29.99 in 10.0 mi Calm Calm - N/A   Clear
5:52 AM 42.1 °F 37.1 °F 39.0 °F 89% 30.01 in 10.0 mi ESE 8.1 mph - N/A   Clear
6:52 AM 44.1 °F 42.5 °F 39.0 °F 82% 30.06 in 10.0 mi West 3.5 mph - N/A   Clear
7:52 AM 50.0 °F - 39.9 °F 68% 30.05 in 10.0 mi NNW 3.5 mph - N/A   Clear
8:52 AM 57.0 °F - 42.1 °F 57% 30.06 in 10.0 mi Calm Calm - N/A   Clear
9:52 AM 64.0 °F - 39.9 °F 41% 30.05 in 10.0 mi Calm Calm - N/A   Clear
10:52 AM 66.0 °F - 42.1 °F 42% 30.04 in 10.0 mi South 4.6 mph - N/A   Clear
11:52 AM 70.0 °F - 42.1 °F 36% 30.02 in 10.0 mi Variable 3.5 mph - N/A   Clear
12:52 PM 75.0 °F - 42.1 °F 31% 29.97 in 10.0 mi Variable 4.6 mph - N/A   Clear
1:39 PM 70.0 °F - 43.0 °F 38% 30.27 in 10.0 mi WNW 16.1 mph - N/A   Overcast
1:52 PM 69.1 °F - 33.1 °F 26% 30.05 in 10.0 mi NW 8.1 mph 28.8 mph 0.00 in Rain Light Rain
2:47 PM 75.2 °F - 30.2 °F 19% 30.24 in 10.0 mi ENE 11.5 mph - 0.00 in Thunderstorm Mostly Cloudy
2:52 PM 77.0 °F - 30.9 °F 19% 29.97 in 10.0 mi NE 9.2 mph - 0.00 in Thunderstorm Mostly Cloudy
3:02 PM 75.9 °F - 28.9 °F 18% 30.23 in 10.0 mi ENE 9.2 mph - N/A   Scattered Clouds
3:52 PM 78.1 °F - 28.9 °F 17% 29.94 in 10.0 mi NNE 6.9 mph - N/A   Scattered Clouds
4:52 PM 75.9 °F - 30.9 °F 19% 29.93 in 10.0 mi North 10.4 mph - N/A   Clear
5:25 PM 73.0 °F - 35.1 °F 25% 30.19 in 10.0 mi North 12.7 mph - N/A Thunderstorm Clear
5:40 PM 71.1 °F - 34.0 °F 26% 30.20 in 10.0 mi North 13.8 mph 24.2 mph N/A   Partly Cloudy
5:52 PM 69.1 °F - 33.1 °F 26% 30.02 in 10.0 mi WNW 19.6 mph 36.8 mph N/A Thunderstorm Thunderstorm
5:59 PM 66.9 °F - 37.0 °F 33% 30.24 in 10.0 mi NW 19.6 mph 33.4 mph N/A Thunderstorm Thunderstorm
6:14 PM 59.0 °F - 46.0 °F 62% 30.18 in 10.0 mi NE 16.1 mph 33.4 mph 0.03 in Rain Light Rain
6:52 PM 64.0 °F - 42.1 °F 45% 29.99 in 10.0 mi North 17.3 mph - 0.03 in   Overcast
7:52 PM 57.0 °F - 48.0 °F 72% 30.00 in 10.0 mi WSW 5.8 mph - 0.00 in   Clear
8:52 PM 54.0 °F - 46.0 °F 75% 29.99 in 10.0 mi SW 3.5 mph - N/A   Clear
9:52 PM 54.0 °F - 46.0 °F 75% 29.99 in 10.0 mi Calm Calm - N/A   Mostly Cloudy
10:52 PM 51.1 °F - 44.1 °F 77% 30.01 in 10.0 mi SE 4.6 mph - N/A   Partly Cloudy
11:52 PM 50.0 °F - 44.1 °F 80% 30.00 in 10.0 mi SW 4.6 mph - N/A   Clear